Regional Weather Roundup
Issued by NWS Albany, NY

Home | Current Version | Previous Version | Text Only | Print | Product List | Glossary On
Versions: 1 2 3 4 5 6 7 8 9 10 11 12 13 14 15 16 17 18 19 20 21 22 23 24 25 26
000
ASUS41 KALY 252210
RWRALY

NEW YORK STATE HOURLY WEATHER ROUNDUP
NATIONAL WEATHER SERVICE ALBANY NY
600 PM EDT WED MAY 25 2016

NOTE: "FAIR" INDICATES FEW OR NO CLOUDS BELOW 12,000 FEET WITH NO
SIGNIFICANT WEATHER AND/OR NO OBSTRUCTIONS TO VISIBILITY.

NYZ032-033-038>043-046>054-057>066-NYZ062>081-082-084-252300-
EAST


CITY           SKY/WX    TMP DP  RH WIND       PRES   REMARKS
ALBANY         MOSUNNY   84  52  33 W12G17    29.99F
GLENS FALLS    SUNNY     84  53  34 W14       29.96F
POUGHKEEPSIE   CLOUDY    88  47  24 SW8       29.98S
NEWBURGH       MOSUNNY   86  50  28 W9        30.02S
MONTGOMERY     MOSUNNY   88  51  28 VRB5      30.00S
WHITE PLAINS   SUNNY     86  44  23 SW5       30.03R
ISLIP          MOSUNNY   78  51  38 SW12      30.03R
NEW YORK CITY  MOSUNNY   90  48  23 SW8       30.02R
CENTRAL PARK   SUNNY     85  44  23 VRB5      30.05S
$$

NYZ005>009-017-018-044>046-055-056-252300-
CENTRAL


CITY           SKY/WX    TMP DP  RH WIND       PRES   REMARKS
FULTON         PTSUNNY   78  55  44 NW5       30.04S
SYRACUSE       PTSUNNY   81  52  36 NW12      30.03R
ROME           PTSUNNY   78  56  46 NW13      30.03S
ELMIRA         SUNNY     85  50  29 W7        30.04S
BINGHAMTON     MOSUNNY   80  50  34 NW7       30.08S
MONTICELLO     MOSUNNY   81  46  30 W9G17     30.08S
$$

NYZ026>034-041>043-087-252300-
NORTH


CITY           SKY/WX    TMP DP  RH WIND       PRES   REMARKS
WATERTOWN      SUNNY     74  50  42 SW7       30.01F
FORT DRUM      NOT AVBL
MASSENA        SUNNY     80  56  43 NW9       29.99R
SARANAC LAKE   MOSUNNY   76  47  35 VRB7      30.02R
PLATTSBURGH    CLOUDY    76  53  44 NE3       29.95R
$$

NYZ001>004-010>016-019>021-085-252300-
WEST


CITY           SKY/WX    TMP DP  RH WIND       PRES   REMARKS
NIAGARA FALLS  MOSUNNY   82  51  34 SW14      30.04S
BUFFALO        MOSUNNY   76  53  44 SW13      30.06F
DUNKIRK        SUNNY     79  54  41 W9        30.08S
JAMESTOWN      SUNNY     77  50  38 NW10      30.12S
WELLSVILLE     SUNNY     81  46  29 W9        30.12F
ROCHESTER      PTSUNNY   83  49  30 W14G26    30.04S
PENN YAN       SUNNY     84  48  28 W12G17    30.06S
$$

             KEY
       WCI = WIND CHILL INDEX
       VSB = VISIBILITY
       HX  = HEAT INDEX
$$




USA.gov is the U.S. government's official web portal to all federal, state and local government web resources and services.